Flag for Kuwait Weather past 2 weeks in Kuwait City, Kuwait

Now
81 °F

Sunny.


Feels Like: 79 °F
Forecast: 75 / 93 °F
Wind: 10 mph from North

Location: Kuwait International Airport

Current Time: Apr 28, 2015 at 6:58:49 AM

Latest Report: Apr 28, 2015 at 6:00 AM


Visibility: 10 mi

Pressure: 29.89 "Hg

Humidity: 17%

Dew point: 32 °F

Location of Kuwait CityLocation

Historic Weather in Kuwait City — Graph

°F

Kuwait City temperature yesterday

Maximum temperature yesterday: 93 °F (at 2:00 PM)
Minimum temperature yesterday: 72 °F (at 1:00 AM)
Average temperature yesterday: 83 °F

Past Weeks' High & Low Weather Summary

 TemperatureHumidityPressure
High102 °F (Apr 22, 1:00 PM)53% (Apr 18, 7:00 AM)30.12 "Hg (Apr 18, 7:00 AM)
Low52 °F (Apr 14, 5:00 AM)6% (Apr 21, 11:00 AM)29.68 "Hg (Apr 22, 2:00 PM)
Average81 °F20%29.94 "Hg
* Reported Apr 13 5:00 AM — Apr 28 5:00 AM, Kuwait City, Weather by CustomWeather, © 2015

Note: Actual official high and low records may vary slightly from our data, if they occured in-between our weather recording intervals... More about our weather records

Advertising

Kuwait City weather history for previous 24 hours

 ConditionsComfort  
Time TempWeatherWind HumidityBarometerVisibility
5:00 AM
Tue, Apr 28
81 °FClear.9 mph14%29.89 "Hg10 mi
4:00 AM79 °FClear.5 mph12%29.89 "Hg10 mi
3:00 AM82 °FClear.8 mph9%29.89 "Hg10 mi
2:00 AM82 °FClear.7 mph10%29.89 "Hg10 mi
1:00 AM82 °FClear.7 mph10%29.86 "Hg10 mi
12:00 AM79 °FClear.3 mph12%29.86 "Hg10 mi
11:00 PM
Mon, Apr 27
81 °FClear.No wind11%29.89 "Hg10 mi
10:00 PM79 °FClear.5 mph12%29.92 "Hg10 mi
9:00 PM84 °FClear.No wind10%29.89 "Hg10 mi
8:00 PM88 °FClear.7 mph9%29.89 "Hg10 mi
7:00 PM88 °FClear.8 mph13%29.89 "Hg5 mi
6:00 PM91 °FClear.8 mph10%29.89 "Hg5 mi
5:00 PM93 °FPartly sunny.9 mph10%29.89 "HgN/A
4:00 PM93 °FPartly sunny.12 mph8%29.89 "HgN/A
3:00 PM93 °FPartly sunny.13 mph10%29.89 "HgN/A
2:00 PM93 °FPartly sunny.12 mph9%29.92 "HgN/A
1:00 PM91 °FSunny.14 mph10%29.92 "Hg10 mi
12:00 PM91 °FSunny.13 mph11%29.95 "Hg10 mi
11:00 AM88 °FSunny.15 mph13%29.98 "Hg10 mi
10:00 AM84 °FSunny.14 mph16%30.01 "Hg10 mi
9:00 AM81 °FSunny.13 mph20%30.01 "Hg10 mi
8:00 AM77 °FSunny.14 mph22%29.98 "Hg10 mi
7:00 AM75 °FSunny.13 mph21%29.98 "Hg10 mi
6:00 AM75 °FSunny.10 mph19%29.95 "Hg10 mi
Weather by CustomWeather, © 2015

See weather overviewHow to use our weather pages